Wind_Speed
20 20 19 18 17 16 16 14 14 13 13 11 11 11 12 11 13 16 14 14 10 10 11 12 9 12 12 11 11 11 11 11 14 11 8 9 10 9 5 11 11 13 11
19 20 19 18 17 17 15 15 15 16 16 15 13 13 13 13 14 15 13 13 14 13 13 13 13 12 14 12 12 14 13 16 10 12 11 10 10 8 4 7 5 12 12
19 19 19 19 19 18 18 15 15 15 13 13 15 16 15 15 15 19 18 16 15 14 14 15 14 14 16 16 15 11 11 11 8 9 11 9 13 7 7 5 7 13 10
19 19 20 20 19 19 18 17 17 18 17 15 15 16 16 16 15 15 16 14 15 14 15 16 17 17 14 15 19 17 15 13 14 13 11 13 16 5 12 8 7 9 6
19 18 19 20 19 19 19 20 20 19 17 16 16 18 13 12 13 16 16 18 15 15 15 15 16 18 19 20 20 14 14 15 17 17 13 10 9 11 9 9 10 8 9
15 19 17 17 19 21 21 20 19 18 18 18 16 16 17 14 18 20 20 14 16 19 19 18 22 22 24 22 20 19 20 18 17 14 14 15 13 11 11 13 10 13 10
14 16 15 17 18 19 18 19 21 21 20 20 18 17 18 19 21 21 19 20 16 16 17 19 21 21 17 20 20 20 21 20 20 15 14 13 13 16 15 12 8 6 5
12 14 13 14 16 15 15 19 23 23 24 23 21 19 19 17 22 24 21 20 19 16 17 17 17 18 20 17 18 14 21 19 19 18 17 17 17 14 14 8 8 11 9
18 11 14 13 15 14 16 15 17 22 27 29 30 26 23 23 25 24 21 23 22 20 20 20 19 18 21 18 16 21 18 18 17 18 19 16 13 12 12 7 5 5 9
33 14 12 10 12 10 11 19 17 15 21 25 26 25 27 25 25 24 20 21 16 19 23 24 22 20 17 18 18 22 18 17 15 16 16 15 14 14 12 12 11 5 7
28 21 9 7 11 11 16 15 18 18 18 24 30 32 33 29 24 19 19 20 23 21 18 12 21 22 23 22 21 19 17 16 16 14 13 11 10 8 7 6 9 10 11
25 10 7 14 13 19 21 18 19 16 24 30 30 30 26 26 29 26 23 22 15 17 22 23 20 22 23 24 22 18 13 12 11 10 10 8 7 10 12 12 12 12 12
16 18 15 18 18 17 14 11 5 5 8 13 15 15 15 18 22 16 10 7 11 13 13 8 6 4 7 11 13 13 13 13 12 14 14 12 10 6 6 6 7 8 7
8 10 11 12 9 8 8 6 6 5 4 6 8 4 6 7 10 13 14 13 12 9 7 8 11 11 11 9 10 13 14 14 13 12 12 8 6 6 7 5 3 1 4
9 12 11 9 6 7 8 7 5 4 3 4 4 4 3 4 4 4 5 5 7 8 8 9 10 8 7 6 8 9 9 8 8 6 5 4 4 3 3 4 5 2 2
7 7 5 6 5 5 6 5 4 5 5 6 6 8 8 7 7 7 6 6 7 8 8 8 8 8 6 6 4 3 2 3 3 4 4 5 5 6 3 3 4 6 4
5 6 6 5 5 4 4 3 2 2 1 1 4 6 5 6 8 7 6 7 7 7 8 8 9 10 10 7 6 3 6 9 7 12 11 11 7 6 6 2 3 3 3
8 8 7 5 4 4 3 4 3 2 3 5 6 6 5 5 4 5 7 8 7 7 8 7 6 4 4 5 6 8 9 9 10 11 11 11 9 6 5 3 4 3 3
8 6 6 4 5 5 4 4 5 5 5 3 5 4 4 3 4 5 7 7 6 3 5 7 7 7 7 9 10 11 11 11 11 8 7 6 5 3 5 5 7 8 5
5 8 6 6 7 5 5 5 4 5 3 2 2 3 3 2 2 4 5 4 4 5 5 5 6 8 8 7 9 9 9 8 8 7 7 6 7 7 6 5 4 2 1
4 6 8 5 3 3 4 4 5 4 4 4 3 7 6 4 2 4 5 5 5 6 7 7 8 7 7 7 8 8 8 7 9 8 8 7 7 5 5 4 3 2 1
4 4 3 3 4 4 4 4 3 2 3 3 4 8 5 8 6 6 6 8 7 7 8 8 8 8 8 8 9 9 10 10 10 9 8 8 7 7 7 6 4 3 3
6 7 7 7 7 7 7 6 6 6 5 4 4 4 3 5 5 6 7 7 7 9 9 9 8 7 9 9 8 9 10 10 11 10 9 10 8 7 5 4 5 4 3
8 8 8 8 8 8 8 8 8 9 8 6 7 7 6 6 6 6 7 7 8 8 9 9 9 9 10 9 9 9 9 10 10 10 10 8 7 9 6 7 5 5 5
10 11 10 10 10 9 10 10 9 9 8 8 8 9 9 9 8 8 8 8 8 9 9 10 9 9 10 11 10 10 12 17 9 11 11 10 9 9 8 7 7 6 5
12 13 13 12 12 12 11 11 11 11 10 10 9 9 9 10 10 9 9 10 10 10 10 11 11 12 12 12 13 14 17 16 15 16 12 11 10 10 9 9 8 8 7
Wind_Direction
204 206 207 213 214 221 221 224 231 222 228 241 236 238 237 228 233 230 227 226 240 246 255 245 254 264 257 263 283 271 273 281 282 285 321 299 309 314 299 305 305 311 341
206 206 209 210 212 217 226 229 233 235 233 228 229 230 228 233 234 245 232 234 244 245 247 249 253 259 266 279 267 270 273 277 287 297 282 288 294 298 263 263 171 274 334
206 209 212 214 215 219 223 226 233 247 232 227 230 232 231 229 241 241 238 231 242 253 251 251 250 254 258 254 258 265 269 271 262 261 267 278 275 247 263 223 218 283 309
207 211 214 216 219 223 225 225 227 234 241 224 243 243 237 238 238 237 247 245 240 247 249 248 251 252 250 257 260 244 252 259 262 263 262 265 268 255 261 244 221 259 269
209 211 214 220 222 223 226 227 225 225 233 235 236 246 245 249 249 251 243 237 237 239 237 248 252 246 246 247 257 261 252 252 255 256 259 252 254 245 257 253 205 217 252
204 213 218 220 222 223 225 225 230 232 235 235 235 240 243 235 246 243 243 252 254 248 245 242 239 244 247 249 249 252 253 264 254 248 254 251 259 249 256 261 241 208 213
227 220 223 227 234 235 236 239 239 242 240 239 238 243 249 247 240 245 253 251 248 256 264 261 256 253 252 257 254 257 254 253 247 252 241 248 257 250 254 247 227 218 202
223 224 220 227 226 235 242 245 249 249 252 248 245 245 242 247 256 252 246 251 256 248 248 255 256 249 243 251 262 244 251 254 248 237 233 238 241 248 236 233 225 230 251
222 235 214 219 230 230 247 257 251 247 251 254 257 251 236 238 244 250 245 253 259 258 252 249 251 249 247 252 224 246 249 242 237 236 241 247 246 232 217 186 263 239 256
220 227 228 238 235 244 255 253 270 259 258 256 249 235 232 230 240 250 253 257 254 255 254 255 249 242 237 256 224 247 240 238 229 225 227 222 214 213 208 206 220 219 273
215 215 233 236 247 274 269 262 256 258 256 250 239 242 253 243 251 254 254 258 258 244 237 231 253 246 249 247 225 234 223 212 205 206 215 207 203 210 210 237 268 270 261
227 205 222 253 262 274 265 261 266 269 268 253 248 245 237 245 250 261 263 259 248 242 240 249 268 261 230 219 210 209 195 199 200 200 214 219 223 240 271 288 283 270 248
183 194 213 231 251 245 222 229 245 252 252 244 254 253 255 242 232 225 215 250 261 259 232 227 242 234 255 251 244 236 234 216 217 219 227 240 258 273 282 281 269 249 237
152 172 163 153 170 181 176 169 154 139 159 186 180 204 213 218 219 211 239 245 240 216 207 218 228 243 246 245 247 244 241 237 227 235 240 231 237 260 246 240 257 236 17
153 149 155 157 157 175 185 181 166 181 218 218 178 179 162 200 165 172 186 197 212 236 217 202 199 201 206 204 206 217 216 210 219 235 253 256 216 188 176 169 184 173 186
170 177 188 191 203 190 185 200 220 266 253 238 226 225 235 229 216 222 228 224 218 198 195 196 191 181 169 154 140 165 195 222 217 222 199 213 226 199 211 195 172 164 185
140 141 138 135 137 171 183 168 188 196 294 188 200 209 213 242 245 225 230 239 212 187 172 179 187 180 184 187 200 190 218 216 204 187 198 179 178 209 174 197 192 176 204
119 114 112 125 137 135 132 154 159 170 141 136 131 122 123 143 162 186 191 188 194 199 187 177 187 194 182 162 190 201 211 209 219 203 211 204 192 178 176 194 201 207 216
100 114 115 108 115 131 120 120 132 153 162 149 134 136 146 159 156 154 155 150 149 146 190 188 195 209 217 214 220 229 229 219 208 196 201 215 194 179 197 200 226 215 200
150 133 121 120 113 132 141 132 146 143 159 182 188 218 234 208 211 201 179 153 199 202 194 203 214 205 202 210 219 217 205 218 220 197 196 192 187 184 202 210 210 216 223
158 159 152 155 146 138 133 154 164 164 174 192 203 209 213 162 258 210 203 222 201 211 201 201 198 199 206 209 204 200 203 200 203 201 200 192 200 195 197 206 211 207 240
199 220 223 216 224 216 205 200 199 195 204 200 211 256 239 199 182 225 223 223 216 214 222 213 212 210 219 215 216 211 203 205 208 204 205 214 221 214 216 211 200 212 225
230 233 236 234 232 232 227 218 222 221 223 223 222 251 225 197 221 231 221 217 219 219 211 216 216 218 223 227 227 218 212 215 224 221 214 225 211 200 205 199 208 213 228
240 242 239 240 237 233 239 238 235 238 225 237 237 233 232 225 226 232 229 233 224 223 222 229 224 227 231 228 226 224 223 216 218 217 208 214 204 217 197 205 213 219 235
235 242 243 241 239 248 234 236 237 236 239 236 236 237 238 240 239 238 245 236 237 235 237 236 240 240 234 234 220 230 225 242 224 216 212 207 201 214 195 214 220 233 249
246 247 243 241 243 241 239 234 234 233 236 237 239 239 240 241 246 251 251 249 248 250 249 250 253 247 245 244 234 220 237 247 240 226 209 208 205 210 213 225 234 243 258
Height
1562 1565 1568 1571 1573 1575 1577 1579 1580 1583 1584 1585 1586 1589 1590 1592 1593 1593 1594 1595 1595 1597 1597 1596 1598 1598 1598 1598 1598 1598 1598 1597 1595 1595 1595 1592 1592 1593 1594 1589 1588 1586 1586
1559 1562 1565 1568 1570 1572 1574 1575 1576 1578 1580 1582 1584 1586 1587 1588 1590 1590 1591 1593 1593 1594 1594 1595 1596 1596 1596 1595 1595 1595 1595 1594 1594 1593 1595 1594 1592 1591 1592 1590 1590 1584 1585
1555 1559 1562 1565 1567 1570 1571 1573 1574 1575 1576 1579 1580 1581 1583 1584 1585 1585 1586 1587 1590 1590 1591 1591 1592 1593 1593 1593 1592 1592 1593 1592 1592 1593 1592 1592 1590 1587 1589 1590 1589 1586 1585
1551 1555 1558 1561 1564 1566 1569 1570 1572 1573 1573 1575 1576 1577 1578 1580 1581 1582 1582 1582 1585 1586 1587 1588 1588 1588 1588 1589 1588 1588 1589 1589 1588 1589 1588 1588 1586 1585 1585 1586 1587 1586 1585
1548 1551 1554 1557 1559 1562 1563 1565 1567 1569 1570 1572 1573 1573 1574 1576 1577 1576 1577 1578 1579 1580 1582 1583 1584 1584 1584 1585 1584 1585 1585 1585 1584 1584 1584 1584 1583 1583 1581 1581 1584 1585 1583
1542 1546 1549 1551 1554 1556 1558 1560 1562 1564 1565 1567 1569 1570 1570 1573 1573 1574 1574 1575 1575 1576 1576 1577 1578 1578 1579 1579 1579 1580 1581 1581 1580 1581 1581 1580 1581 1581 1581 1580 1581 1581 1582
1540 1542 1544 1547 1549 1552 1553 1555 1557 1559 1560 1561 1563 1565 1565 1566 1567 1568 1570 1571 1572 1573 1573 1573 1573 1573 1573 1573 1574 1575 1575 1576 1576 1577 1576 1577 1577 1577 1579 1580 1578 1578 1579
1536 1538 1540 1541 1545 1546 1548 1549 1551 1553 1554 1556 1557 1558 1560 1562 1562 1563 1564 1566 1566 1567 1569 1569 1568 1568 1569 1570 1569 1570 1569 1570 1571 1572 1571 1571 1572 1574 1575 1577 1576 1578 1578
1530 1534 1536 1539 1539 1539 1542 1544 1545 1547 1548 1549 1550 1551 1553 1554 1554 1556 1559 1560 1561 1562 1562 1562 1562 1564 1564 1565 1566 1564 1566 1567 1567 1568 1568 1568 1569 1570 1572 1574 1575 1576 1576
1524 1527 1530 1531 1532 1534 1535 1539 1539 1541 1542 1543 1544 1544 1545 1547 1548 1549 1552 1555 1556 1557 1556 1557 1557 1559 1559 1562 1563 1561 1562 1563 1563 1563 1564 1564 1564 1567 1570 1571 1572 1573 1575
1518 1521 1524 1526 1533 1530 1534 1535 1535 1534 1535 1538 1539 1541 1541 1542 1544 1545 1546 1547 1548 1550 1552 1552 1551 1554 1554 1556 1558 1557 1558 1558 1558 1559 1560 1563 1562 1566 1566 1567 1570 1570 1569
1513 1517 1513 1525 1524 1527 1530 1529 1530 1528 1529 1530 1532 1533 1532 1535 1538 1541 1541 1542 1542 1544 1546 1547 1547 1548 1548 1549 1551 1551 1552 1554 1555 1557 1560 1562 1561 1564 1565 1565 1567 1568 1567
1512 1513 1515 1521 1520 1523 1526 1527 1526 1526 1527 1527 1528 1527 1528 1529 1530 1533 1535 1537 1538 1540 1542 1542 1545 1546 1549 1550 1550 1550 1551 1552 1553 1556 1558 1560 1562 1563 1564 1563 1565 1567 1567
1514 1516 1519 1521 1524 1523 1525 1526 1526 1525 1528 1528 1529 1529 1529 1530 1530 1531 1533 1534 1536 1538 1538 1541 1543 1544 1546 1547 1547 1549 1550 1550 1552 1556 1558 1558 1559 1561 1562 1562 1564 1566 1567
1516 1517 1520 1522 1523 1523 1524 1526 1524 1527 1529 1530 1529 1531 1530 1530 1530 1530 1533 1534 1536 1537 1538 1540 1541 1544 1546 1546 1547 1549 1551 1552 1553 1556 1558 1558 1559 1560 1561 1562 1562 1564 1568
1517 1517 1520 1521 1522 1523 1522 1522 1524 1526 1527 1527 1527 1530 1531 1531 1532 1531 1533 1534 1535 1537 1538 1540 1541 1543 1545 1546 1548 1551 1553 1554 1554 1555 1557 1560 1561 1562 1562 1561 1562 1563 1567
1518 1519 1520 1521 1520 1522 1522 1522 1523 1524 1525 1525 1526 1528 1529 1530 1532 1531 1533 1534 1535 1536 1538 1540 1541 1542 1543 1544 1547 1548 1550 1553 1554 1555 1556 1558 1560 1562 1560 1563 1565 1565 1565
1520 1519 1520 1521 1522 1522 1521 1522 1522 1524 1527 1528 1527 1527 1530 1530 1531 1531 1532 1532 1535 1536 1537 1538 1543 1545 1544 1543 1547 1549 1550 1550 1552 1555 1556 1557 1556 1557 1559 1560 1563 1565 1566
1520 1522 1523 1524 1523 1524 1524 1526 1527 1528 1529 1528 1529 1529 1530 1532 1532 1532 1534 1535 1536 1538 1540 1540 1542 1544 1544 1545 1545 1548 1551 1551 1553 1552 1555 1557 1557 1560 1562 1562 1561 1562 1562
1524 1524 1525 1525 1524 1527 1528 1529 1529 1530 1531 1531 1531 1533 1531 1531 1533 1534 1534 1535 1540 1542 1541 1543 1545 1545 1544 1543 1545 1547 1549 1550 1552 1555 1557 1556 1556 1559 1561 1561 1562 1562 1561
1525 1525 1525 1528 1528 1528 1527 1529 1530 1530 1531 1532 1533 1532 1533 1534 1534 1535 1537 1539 1539 1541 1542 1544 1544 1544 1545 1543 1546 1547 1547 1549 1552 1554 1554 1553 1554 1556 1556 1559 1558 1557 1559
1526 1526 1526 1526 1527 1527 1529 1529 1529 1529 1531 1532 1532 1530 1531 1533 1535 1537 1538 1539 1539 1541 1542 1542 1542 1542 1543 1544 1543 1545 1545 1548 1548 1549 1551 1551 1549 1551 1553 1553 1556 1556 1556
1525 1525 1525 1526 1526 1526 1527 1528 1530 1531 1531 1530 1531 1531 1530 1532 1535 1535 1537 1538 1537 1539 1540 1539 1539 1540 1543 1541 1540 1543 1543 1545 1546 1545 1548 1548 1548 1550 1550 1552 1555 1556 1556
1522 1523 1523 1523 1524 1525 1525 1526 1526 1526 1527 1529 1530 1531 1531 1533 1532 1533 1535 1536 1537 1536 1536 1537 1538 1538 1538 1538 1540 1540 1541 1542 1543 1544 1546 1549 1547 1548 1550 1553 1554 1555 1557
1519 1519 1521 1521 1522 1522 1523 1524 1524 1525 1526 1527 1527 1528 1529 1530 1531 1532 1533 1533 1535 1535 1535 1536 1535 1535 1534 1534 1537 1538 1539 1539 1541 1544 1545 1546 1546 1547 1549 1552 1553 1553 1553
1516 1516 1517 1518 1519 1520 1520 1521 1522 1523 1524 1525 1526 1526 1527 1528 1528 1529 1530 1530 1532 1531 1532 1532 1533 1534 1535 1534 1534 1535 1535 1537 1539 1539 1542 1543 1543 1545 1548 1550 1550 1550 1550